FW2527 Weather Reports


Display with metric or nautical units.
time (UTC)temp
F
wind
direction
speed
MPH
gust
MPH
rain 1hr
in
rain 24hr
in
rain mn
in
humidity
%
barometer
mb
20260510124047 64 0.0 0.0 0.00 0.00 0.00 60 1013.0
20260510123534 64 0.0 0.0 0.00 0.00 0.00 60 1013.0
20260510123057 65 0.0 0.0 0.00 0.00 0.00 60 1013.2
20260510122542 64 0.0 0.0 0.00 0.00 0.00 62 1013.2
20260510122030 65 0.0 0.0 0.00 0.00 0.00 60 1013.2
20260510121552 66 0.0 0.0 0.00 0.00 0.00 61 1013.3
20260510121042 65 0.0 0.0 0.00 0.00 0.00 63 1013.3
20260510120528 65 0.0 0.0 0.00 0.00 0.00 63 1013.3
20260510120052 64 0.0 0.0 0.00 0.00 0.00 64 1013.3
20260510115539 64 0.0 0.0 0.00 0.00 0.00 63 1013.4
20260510115027 64 0.0 0.0 0.00 0.00 0.00 63 1013.5
20260510114549 64 0.0 0.0 0.00 0.00 0.00 65 1013.5
20260510114036 64 0.0 0.0 0.00 0.00 0.00 63 1013.6
20260510113522 63 0.0 0.0 0.00 0.00 0.00 66 1013.6
20260510113053 63 0.0 0.0 0.00 0.00 0.00 63 1013.7
20260510112533 63 0.0 0.0 0.00 0.00 0.00 67 1013.8
20260510112021 63 0.0 0.0 0.00 0.00 0.00 66 1013.7
20260510111543 63 0.0 0.0 0.00 0.00 0.00 67 1013.9
20260510111030 63 0.0 0.0 0.00 0.00 0.00 66 1013.9
20260510110518 63 0.0 0.0 0.00 0.00 0.00 66 1014.1
20260510110038 63 0.0 0.0 0.00 0.00 0.00 66 1014.0
20260510105521 64 0.0 0.0 0.00 0.00 0.00 64 1014.0
20260510105014 64 0.0 0.0 0.00 0.00 0.00 67 1014.1
20260510104530 63 0.0 0.0 0.00 0.00 0.00 67 1014.4
20260510104018 64 0.0 0.0 0.00 0.00 0.00 67 1014.3
20260510103506 62 0.0 0.0 0.00 0.00 0.00 68 1014.3
20260510103028 63 0.0 0.0 0.00 0.00 0.00 69 1014.3
20260510102518 62 0.0 0.0 0.00 0.00 0.00 68 1014.3
20260510102005 62 0.0 0.0 0.00 0.00 0.00 70 1014.5
20260510101536 62 0.0 0.0 0.00 0.00 0.00 71 1014.5
20260510101023 62 0.0 0.0 0.00 0.00 0.00 70 1014.5
20260510100512 62 0.0 0.0 0.00 0.00 0.00 68 1014.6
20260510100033 62 0.0 0.0 0.00 0.00 0.00 69 1014.6
20260510095522 62 0.0 0.0 0.00 0.00 0.00 70 1014.5
20260510095013 61 0.0 0.0 0.00 0.00 0.00 71 1014.6
20260510094529 61 0.0 0.0 0.00 0.00 0.00 70 1014.6
20260510094019 62 0.0 0.0 0.00 0.00 0.00 68 1014.6
20260510093509 63 0.0 0.0 0.00 0.00 0.00 69 1014.7
20260510093009 63 0.0 0.0 0.00 0.00 0.00 71 1014.7
20260510092601 61 0.0 0.0 0.00 0.00 0.00 71 1014.8
20260510092048 61 0.0 0.0 0.00 0.00 0.00 72 1014.7
20260510091522 61 0.0 0.0 0.00 0.00 0.00 72 1014.7
20260510091006 61 0.0 0.0 0.00 0.00 0.00 73 1014.8
20260510090555 60 0.0 0.0 0.00 0.00 0.00 72 1014.7
20260510090014 61 0.0 0.0 0.00 0.00 0.00 73 1014.7
20260510085502 60 0.0 0.0 0.00 0.00 0.00 74 1014.8
20260510085051 60 0.0 0.0 0.00 0.00 0.00 73 1014.8
20260510084512 60 0.0 0.0 0.00 0.00 0.00 73 1014.8
20260510084101 60 0.0 0.0 0.00 0.00 0.00 73 1014.8
20260510083549 60 0.0 0.0 0.00 0.00 0.00 73 1014.8
20260510083009 60 0.0 0.0 0.00 0.00 0.00 75 1014.8
20260510082558 59 0.0 0.0 0.00 0.00 0.00 76 1014.9
20260510082047 59 0.0 0.0 0.00 0.00 0.00 76 1014.9
20260510081505 59 0.0 0.0 0.00 0.00 0.00 77 1014.9
20260510081056 58 0.0 0.0 0.00 0.00 0.00 77 1015.0
20260510080546 58 0.0 0.0 0.00 0.00 0.00 78 1015.0
20260510080006 58 0.0 0.0 0.00 0.00 0.00 77 1014.9
20260510075559 58 0.0 0.0 0.00 0.00 0.00 77 1015.0
20260510075045 57 0.0 0.0 0.00 0.00 0.00 78 1014.9
20260510074504 57 0.0 0.0 0.00 0.00 0.00 79 1014.9
20260510074055 56 0.0 0.0 0.00 0.00 0.00 79 1014.9
20260510073541 56 0.0 0.0 0.00 0.00 0.00 80 1014.9
20260510073011 56 0.0 0.0 0.00 0.00 0.00 81 1014.9
20260510072600 55 0.0 0.0 0.00 0.00 0.00 81 1014.9
20260510072049 55 0.0 0.0 0.00 0.00 0.00 82 1015.0
20260510071509 55 0.0 0.0 0.00 0.00 0.00 82 1015.0
20260510071056 54 0.0 0.0 0.00 0.00 0.00 83 1015.0
20260510070545 54 0.0 0.0 0.00 0.00 0.00 84 1015.0
20260510070013 53 0.0 0.0 0.00 0.00 0.00 85 1015.0
20260510065603 53 0.0 0.0 0.00 0.00 0.00 85 1015.1
20260510065051 52 0.0 0.0 0.00 0.00 0.00 86 1015.0
20260510064529 52 0.0 0.0 0.00 0.00 0.00 87 1015.1
20260510064101 51 0.0 0.0 0.00 0.00 0.00 88 1015.1
20260510063549 50 0.0 0.0 0.00 0.00 0.00 88 1015.0
20260510063022 50 0.0 0.0 0.00 0.00 0.00 88 1015.0
20260510062506 49 0.0 0.0 0.00 0.00 0.00 89 1015.0
20260510062056 49 0.0 0.0 0.00 0.00 0.00 89 1015.0
20260510061515 49 0.0 0.0 0.00 0.00 0.00 89 1015.0
20260510061003 48 0.0 0.0 0.00 0.00 0.00 90 1015.0
20260510060556 48 0.0 0.0 0.00 0.00 0.00 90 1015.0
20260510060014 48 0.0 0.0 0.00 0.00 0.00 90 1015.0
20260510055602 48 0.0 0.0 0.00 0.00 0.00 90 1014.9
20260510055049 47 0.0 0.0 0.00 0.00 0.00 90 1014.9
20260510054511 47 0.0 0.0 0.00 0.00 0.00 91 1014.9
20260510054101 47 0.0 0.0 0.00 0.00 0.00 91 1015.0
20260510053548 47 0.0 0.0 0.00 0.00 0.00 91 1015.0
20260510053020 46 0.0 0.0 0.00 0.00 0.00 91 1015.0
20260510052558 46 0.0 0.0 0.00 0.00 0.00 91 1014.9
20260510052046 46 0.0 0.0 0.00 0.00 0.00 91 1014.9
20260510051514 46 0.0 0.0 0.00 0.00 0.00 91 1014.9
20260510051005 46 0.0 0.0 0.00 0.00 0.00 91 1015.0
20260510050552 46 0.0 0.0 0.00 0.00 0.00 91 1014.9
20260510050009 45 0.0 0.0 0.00 0.00 0.00 91 1014.8
20260510045601 45 0.0 0.0 0.00 0.00 0.00 91 1015.0
20260510045047 45 0.0 0.0 0.00 0.00 0.00 91 1015.0
20260510044517 45 0.0 0.0 0.00 0.00 0.00 91 1014.8
20260510044004 45 0.0 0.0 0.00 0.00 0.00 91 1014.9
20260510043555 45 0.0 0.0 0.00 0.00 0.00 91 1014.9
20260510043014 45 0.0 0.0 0.00 0.00 0.00 90 1014.9
20260510042502 45 0.0 0.0 0.00 0.00 0.00 90 1015.0
20260510042053 44 0.0 0.0 0.00 0.00 0.00 90 1015.0
20260510041514 45 0.0 0.0 0.00 0.00 0.00 90 1015.1
20260510041001 45 0.0 0.0 0.00 0.00 0.00 90 1015.2
20260510040551 45 0.0 0.0 0.00 0.00 0.00 90 1015.0
20260510040009 45 0.0 0.0 0.00 0.00 0.00 90 1015.1
20260510035559 45 0.0 0.0 0.00 0.00 0.00 90 1015.2
20260510035048 45 0.0 0.0 0.00 0.00 0.00 90 1015.2
20260510034507 45 0.0 0.0 0.00 0.00 0.00 90 1015.2
20260510034057 45 0.0 0.0 0.00 0.00 0.00 90 1015.3
20260510033544 45 0.0 0.0 0.00 0.00 0.00 90 1015.1
20260510033014 45 0.0 0.0 0.00 0.00 0.00 90 1015.2
20260510032501 45 0.0 0.0 0.00 0.00 0.00 90 1015.2
20260510032053 45 0.0 0.0 0.00 0.00 0.00 90 1015.3
20260510031521 45 0.0 0.0 0.00 0.00 0.00 90 1015.2
20260510031106 45 0.0 0.0 0.00 0.00 0.00 90 1015.4
20260510030551 45 0.0 0.0 0.00 0.00 0.00 90 1015.3
20260510030019 45 0.0 0.0 0.00 0.00 0.00 90 1015.3
20260510025507 45 0.0 0.0 0.00 0.00 0.00 89 1015.3
20260510025058 45 0.0 0.0 0.00 0.00 0.00 89 1015.3
20260510024517 45 0.0 0.0 0.00 0.00 0.00 89 1015.4
20260510024005 45 0.0 0.0 0.00 0.00 0.00 89 1015.4
20260510023555 45 0.0 0.0 0.00 0.00 0.00 89 1015.4
20260510023014 45 0.0 0.0 0.00 0.00 0.00 89 1015.4
20260510022503 45 0.0 0.0 0.00 0.00 0.00 89 1015.4
20260510022054 45 0.0 0.0 0.00 0.00 0.00 89 1015.5
20260510021528 45 0.0 0.0 0.00 0.00 0.00 89 1015.4
20260510021009 45 0.0 0.0 0.00 0.00 0.00 89 1015.4
20260510020600 45 0.0 0.0 0.00 0.00 0.00 89 1015.5
20260510020024 45 0.0 0.0 0.00 0.00 0.00 88 1015.4
20260510015505 45 0.0 0.0 0.00 0.00 0.00 88 1015.5
20260510015055 45 0.0 0.0 0.00 0.00 0.00 89 1015.4
20260510014514 45 0.0 0.0 0.00 0.00 0.00 88 1015.6
20260510014003 45 0.0 0.0 0.00 0.00 0.00 88 1015.6
20260510013556 45 0.0 0.0 0.00 0.00 0.00 88 1015.7
20260510013012 45 0.0 0.0 0.00 0.00 0.00 88 1015.6
20260510012604 46 0.0 0.0 0.00 0.00 0.00 88 1015.7
20260510012050 46 0.0 0.0 0.00 0.00 0.00 88 1015.6
20260510011510 46 0.0 0.0 0.00 0.00 0.00 88 1015.6
20260510011102 46 0.0 0.0 0.00 0.00 0.00 88 1015.6
20260510010548 46 0.0 0.0 0.00 0.00 0.00 88 1015.6
20260510010009 46 0.0 0.0 0.00 0.00 0.00 88 1015.5
20260510005559 46 0.0 0.0 0.00 0.00 0.00 87 1015.6
20260510005046 46 0.0 0.0 0.00 0.00 0.00 87 1015.6
20260510004506 46 0.0 0.0 0.00 0.00 0.00 87 1015.6
20260510004056 46 0.0 0.0 0.00 0.00 0.00 87 1015.6
20260510003545 47 0.0 0.0 0.00 0.00 0.00 87 1015.7
20260510003013 47 0.0 0.0 0.00 0.00 0.00 87 1015.8
20260510002501 47 0.0 0.0 0.00 0.00 0.00 86 1015.8
20260510002051 47 0.0 0.0 0.00 0.00 0.00 86 1015.8
20260510001510 47 0.0 0.0 0.00 0.00 0.00 86 1015.7
20260510001102 47 0.0 0.0 0.00 0.00 0.00 86 1015.7
20260510000552 47 0.0 0.0 0.00 0.00 0.00 86 1015.7
20260510000020 47 0.0 0.0 0.00 0.00 0.00 85 1015.9
20260509235505 47 0.0 0.0 0.00 0.00 0.00 85 1015.9
20260509235055 48 0.0 0.0 0.00 0.00 0.00 85 1016.0
20260509234515 48 0.0 0.0 0.00 0.00 0.00 85 1016.0
20260509234002 48 0.0 0.0 0.00 0.00 0.00 85 1016.1
20260509233553 48 0.0 0.0 0.00 0.00 0.00 85 1016.1
20260509233013 48 0.0 0.0 0.00 0.00 0.00 85 1016.1
20260509232603 48 0.0 0.0 0.00 0.00 0.00 85 1016.1
20260509232051 49 0.0 0.0 0.00 0.00 0.00 85 1016.0
20260509231510 49 0.0 0.0 0.00 0.00 0.00 84 1016.2
20260509231059 49 0.0 0.0 0.00 0.00 0.00 84 1016.2
20260509230548 49 0.0 0.0 0.00 0.00 0.00 84 1016.2
20260509230016 49 0.0 0.0 0.00 0.00 0.00 84 1016.2
20260509225505 49 0.0 0.0 0.00 0.00 0.00 84 1016.2
20260509225055 49 0.0 0.0 0.00 0.00 0.00 84 1016.2
20260509224514 49 0.0 0.0 0.00 0.00 0.00 83 1016.2
20260509224002 49 0.0 0.0 0.00 0.00 0.00 83 1016.3
20260509223553 50 0.0 0.0 0.00 0.00 0.00 83 1016.3
20260509223012 50 0.0 0.0 0.00 0.00 0.00 83 1016.3
20260509222603 50 0.0 0.0 0.00 0.00 0.00 82 1016.3
20260509222050 50 0.0 0.0 0.00 0.00 0.00 82 1016.4
20260509221519 50 0.0 0.0 0.00 0.00 0.00 82 1016.4
20260509221007 50 0.0 0.0 0.00 0.00 0.00 82 1016.4
20260509220555 50 0.0 0.0 0.00 0.00 0.00 81 1016.4
20260509220016 50 0.0 0.0 0.00 0.00 0.00 81 1016.4
20260509215506 50 0.0 0.0 0.00 0.00 0.00 81 1016.4
20260509215058 50 0.0 0.0 0.00 0.00 0.00 80 1016.4
20260509214522 51 0.0 0.0 0.00 0.00 0.00 80 1016.4
20260509214010 51 0.0 0.0 0.00 0.00 0.00 80 1016.4
20260509213601 51 0.0 0.0 0.00 0.00 0.00 80 1016.4
20260509213019 51 0.0 0.0 0.00 0.00 0.00 80 1016.4
20260509212506 51 0.0 0.0 0.00 0.00 0.00 80 1016.3
20260509212056 51 0.0 0.0 0.00 0.00 0.00 79 1016.4
20260509211519 51 0.0 0.0 0.00 0.00 0.00 79 1016.4
20260509211004 52 0.0 0.0 0.00 0.00 0.00 79 1016.4
20260509210555 52 0.0 0.0 0.00 0.00 0.00 79 1016.4
20260509210014 52 0.0 0.0 0.00 0.00 0.00 79 1016.4
20260509205501 52 0.0 0.0 0.00 0.00 0.00 78 1016.5
20260509205052 52 0.0 0.0 0.00 0.00 0.00 78 1016.5
20260509204520 53 0.0 0.0 0.00 0.00 0.00 77 1016.6
20260509204009 53 0.0 0.0 0.00 0.00 0.00 76 1016.6
20260509203601 53 0.0 0.0 0.00 0.00 0.00 76 1016.6
20260509203029 53 0.0 0.0 0.00 0.00 0.00 75 1016.6
20260509202506 54 0.0 0.0 0.00 0.00 0.00 74 1016.6
20260509202058 54 0.0 0.0 0.00 0.00 0.00 74 1016.6
20260509201515 54 0.0 0.0 0.00 0.00 0.00 73 1016.7
20260509201004 54 0.0 0.0 0.00 0.00 0.00 72 1016.6
20260509200554 55 0.0 0.0 0.00 0.00 0.00 72 1016.7
20260509200026 55 0.0 0.0 0.00 0.00 0.00 72 1016.7
20260509195511 55 0.0 0.0 0.00 0.00 0.00 71 1016.8
20260509195102 56 0.0 0.0 0.00 0.00 0.00 71 1016.6
20260509194523 56 0.0 0.0 0.00 0.00 0.00 70 1016.6
20260509194005 56 0.0 0.0 0.00 0.00 0.00 69 1016.6
20260509193555 57 0.0 0.0 0.00 0.00 0.00 68 1016.6
20260509193025 57 0.0 0.0 0.00 0.00 0.00 67 1016.6
20260509192511 58 0.0 0.0 0.00 0.00 0.00 66 1016.4
20260509192105 58 0.0 0.0 0.00 0.00 0.00 65 1016.4
20260509191522 59 0.0 0.0 0.00 0.00 0.00 64 1016.4
20260509191009 59 0.0 0.0 0.00 0.00 0.00 63 1016.3
20260509190557 59 0.0 0.0 0.00 0.00 0.00 61 1016.2
20260509190015 60 0.0 0.0 0.00 0.00 0.00 61 1016.1
20260509185502 60 0.0 0.0 0.00 0.00 0.00 60 1016.1
20260509185052 61 0.0 0.0 0.00 0.00 0.00 59 1016.1
20260509184522 61 0.0 0.0 0.00 0.00 0.00 58 1016.2
20260509184011 62 0.0 0.0 0.00 0.00 0.00 56 1016.1
20260509183601 62 0.0 0.0 0.00 0.00 0.00 56 1016.2
20260509183020 63 0.0 0.0 0.00 0.00 0.00 55 1016.2
20260509182508 63 0.0 0.0 0.00 0.00 0.00 54 1016.3
20260509182058 64 0.0 0.0 0.00 0.00 0.00 53 1016.2
20260509181527 64 0.0 0.0 0.00 0.00 0.00 53 1016.2
20260509181015 65 0.0 0.0 0.00 0.00 0.00 51 1016.2
20260509180503 66 0.0 0.0 0.00 0.00 0.00 50 1016.1
20260509180025 66 0.0 0.0 0.00 0.00 0.00 49 1016.1
20260509175514 67 0.0 0.0 0.00 0.00 0.00 49 1015.8
20260509175001 67 0.0 0.0 0.00 0.00 0.00 49 1016.0
20260509174543 67 0.0 0.0 0.00 0.00 0.00 49 1016.1
20260509174024 67 0.0 0.0 0.00 0.00 0.00 48 1016.0
20260509173506 67 0.0 0.0 0.00 0.00 0.00 48 1016.2
20260509173028 67 0.0 0.0 0.00 0.00 0.00 49 1016.1
20260509172519 67 0.0 0.0 0.00 0.00 0.00 47 1016.2
20260509172007 67 0.0 0.0 0.00 0.00 0.00 48 1016.2
20260509171541 67 0.0 0.0 0.00 0.00 0.00 48 1016.1
20260509171022 67 0.0 0.0 0.00 0.00 0.00 48 1016.2
20260509170510 67 0.0 0.0 0.00 0.00 0.00 47 1016.2
20260509170033 67 0.0 0.0 0.00 0.00 0.00 48 1016.3
20260509165519 67 0.0 0.0 0.00 0.00 0.00 48 1016.3
20260509165008 67 0.0 0.0 0.00 0.00 0.00 48 1016.3
20260509164529 67 0.0 0.0 0.00 0.00 0.00 49 1016.2
20260509164018 67 0.0 0.0 0.00 0.00 0.00 50 1016.3
20260509163505 67 0.0 0.0 0.00 0.00 0.00 50 1016.2
20260509163036 67 0.0 0.0 0.00 0.00 0.00 50 1016.3
20260509162518 66 0.0 0.0 0.00 0.00 0.00 52 1016.2
20260509162004 65 0.0 0.0 0.00 0.00 0.00 52 1016.2
20260509161530 64 0.0 0.0 0.00 0.00 0.00 53 1016.2
20260509161012 65 0.0 0.0 0.00 0.00 0.00 52 1016.2
20260509160602 65 0.0 0.0 0.00 0.00 0.00 52 1016.1
20260509160030 66 0.0 0.0 0.00 0.00 0.00 50 1016.1
20260509155517 66 0.0 0.0 0.00 0.00 0.00 51 1016.3
20260509155005 66 0.0 0.0 0.00 0.00 0.00 52 1016.2
20260509154526 66 0.0 0.0 0.00 0.00 0.00 54 1016.3
20260509154013 65 0.0 0.0 0.00 0.00 0.00 55 1016.4
20260509153501 65 0.0 0.0 0.00 0.00 0.00 52 1016.4
20260509153046 66 0.0 0.0 0.00 0.00 0.00 50 1016.5
20260509152521 66 0.0 0.0 0.00 0.00 0.00 53 1016.6
20260509152010 66 0.0 0.0 0.00 0.00 0.00 56 1016.6
20260509151534 64 0.0 0.0 0.00 0.00 0.00 56 1016.6
20260509151021 64 0.0 0.0 0.00 0.00 0.00 55 1016.7
20260509150509 64 0.0 0.0 0.00 0.00 0.00 55 1016.7
20260509150037 64 0.0 0.0 0.00 0.00 0.00 55 1016.7
20260509145515 64 0.0 0.0 0.00 0.00 0.00 55 1016.7
20260509145003 64 0.0 0.0 0.00 0.00 0.00 54 1016.8
20260509144532 65 0.0 0.0 0.00 0.00 0.00 55 1016.7
20260509144021 65 0.0 0.0 0.00 0.00 0.00 53 1016.8
20260509143509 65 0.0 0.0 0.00 0.00 0.00 53 1016.8
20260509143030 66 0.0 0.0 0.00 0.00 0.00 54 1016.9
20260509142518 66 0.0 0.0 0.00 0.00 0.00 52 1016.8
20260509142103 66 0.0 0.0 0.00 0.00 0.00 51 1017.0
20260509141523 65 0.0 0.0 0.00 0.00 0.00 55 1017.1
20260509141011 66 0.0 0.0 0.00 0.00 0.00 53 1017.1
20260509140603 66 0.0 0.0 0.00 0.00 0.00 51 1017.1
20260509140025 64 0.0 0.0 0.00 0.00 0.00 57 1017.1
20260509135509 64 0.0 0.0 0.00 0.00 0.00 53 1017.2
20260509135100 64 0.0 0.0 0.00 0.00 0.00 54 1017.2
20260509134519 64 0.0 0.0 0.00 0.00 0.00 55 1017.4
20260509134007 64 0.0 0.0 0.00 0.00 0.00 56 1017.3
20260509133559 64 0.0 0.0 0.00 0.00 0.00 54 1017.4
20260509133016 64 0.0 0.0 0.00 0.00 0.00 56 1017.5
20260509132505 65 0.0 0.0 0.00 0.00 0.00 53 1017.6
20260509132055 67 0.0 0.0 0.00 0.00 0.00 52 1017.7
20260509131517 67 0.0 0.0 0.00 0.00 0.00 52 1017.7
20260509131004 67 0.0 0.0 0.00 0.00 0.00 55 1017.7
20260509130553 67 0.0 0.0 0.00 0.00 0.00 51 1017.7
20260509130021 66 0.0 0.0 0.00 0.00 0.00 51 1017.8
20260509125509 67 0.0 0.0 0.00 0.00 0.00 50 1017.8
20260509125058 66 0.0 0.0 0.00 0.00 0.00 52 1017.9
20260509124515 65 0.0 0.0 0.00 0.00 0.00 54 1018.0